This demonstration page uses our WeatherBlox Daily Observations layout. Learn more.

Left ArrowRight Arrow

Hourly Observations for September 19, 2018

Temp ( °F °C ) Dew Point ( °F °C ) Humidity (%) Winds ( mph kmh ) Pressure ( in mb ) Visibility ( mi km ) Precip ( " mm )
12:54 am 00:54 Clear 68 20 65 18.3 90 90 ENE 6 9 29.85 1011 10 16 N/A
1:54 am 01:54 Clear 69 20.6 66 18.9 90 90 E 7 11 29.85 1011 10 16 N/A
2:54 am 02:54 Clear 67 19.4 65 18.3 93 93 E 5 7 29.85 1011 10 16 N/A
3:54 am 03:54 Clear 66 18.9 65 18.3 96 96 ENE 3 6 29.83 1010 9 14 N/A
4:54 am 04:54 Clear 67 19.4 65 18.3 93 93 ESE 5 7 29.82 1010 9 14 N/A
5:54 am 05:54 Clear 66 18.9 64 17.8 93 93 N N/A 29.83 1010 9 14 N/A
6:54 am 06:54 Clear 65 18.3 64 17.8 97 97 N N/A 29.85 1011 9 14 N/A
7:54 am 07:54 Mostly Sunny 69 20.6 65 18.3 87 87 N N/A 29.85 1011 10 16 N/A
8:54 am 08:54 Mostly Cloudy 72 22.2 68 20 87 87 N N/A 29.86 1011 9 14 N/A
9:54 am 09:54 Mostly Sunny 77 25 69 20.6 77 77 E 5 7 29.86 1011 10 16 N/A
10:54 am 10:54 Sunny 80 26.7 70 21.1 71 71 VRB 6 9 29.85 1011 10 16 N/A
11:54 am 11:54 Sunny 86 30 71 21.7 61 61 E 6 9 29.83 1010 10 16 N/A
12:54 pm 12:54 Sunny 92 33.3 72 22.2 52 52 ESE 10 17 29.81 1009 10 16 N/A
1:54 pm 13:54 Mostly Sunny 93 33.9 69 20.6 46 46 SSE 14 22 29.78 1008 10 16 N/A
2:54 pm 14:54 Mostly Sunny 93 33.9 68 20 44 44 S 23 37 29.75 1008 10 16 N/A
3:54 pm 15:54 Mostly Sunny 93 33.9 67 19.4 42 42 S 20 31 29.74 1007 10 16 N/A
4:54 pm 16:54 Mostly Sunny 94 34.4 66 18.9 40 40 S 20 31 29.72 1007 10 16 N/A
5:54 pm 17:54 Partly Cloudy 91 32.8 67 19.4 45 45 S 16 26 29.73 1007 10 16 N/A
6:54 pm 18:54 Sunny 88 31.1 66 18.9 48 48 S 15 24 29.73 1007 10 16 N/A
7:54 pm 19:54 Clear 85 29.4 66 18.9 53 53 SSE 13 20 29.75 1008 10 16 N/A
8:54 pm 20:54 Clear 83 28.3 66 18.9 57 57 SSE 14 22 29.75 1008 10 16 N/A
9:54 pm 21:54 Mostly Cloudy 81 27.2 66 18.9 61 61 S 13 20 29.78 1009 10 16 N/A
10:54 pm 22:54 Mostly Clear 80 26.7 66 18.9 62 62 S 13 20 29.78 1009 10 16 N/A
11:54 pm 23:54 Clear 78 25.6 66 18.9 67 67 S 13 20 29.78 1008 10 16 N/A

Powered by AerisWeather